EVT01 USDD-USHQ

Flight info

Callsign EVT01
Flight time N/A
Altitude 7000
Route MADUN1N MADUN L165 VIPRA DCT SULOR SULOR2G
Aircraft C208/L-SDFGR/C

Departure

Time 2026-05-08 07:59
Airport Salekhard Airport (USDD)

Arrival

Time N/A
Airport Beloyarskiy Airport (USHQ)
Time Latitude Longitude Altitude Speed Heading
2026-05-08 07:42 66.59071 66.59418 217 ft 0 kts 49°
2026-05-08 07:51 66.59090 66.59408 213 ft 4 kts 43°
2026-05-08 07:52 66.59068 66.59486 210 ft 9 kts 145°
2026-05-08 07:52 66.59033 66.59479 208 ft 8 kts 230°
2026-05-08 07:52 66.58979 66.59450 209 ft 8 kts 140°
2026-05-08 07:52 66.58935 66.59579 212 ft 9 kts 95°
2026-05-08 07:53 66.58968 66.59734 212 ft 8 kts 69°
2026-05-08 07:53 66.59002 66.59900 206 ft 16 kts 61°
2026-05-08 07:53 66.59044 66.60099 209 ft 10 kts 64°
2026-05-08 07:53 66.59077 66.60251 203 ft 4 kts 58°
2026-05-08 07:54 66.59104 66.60381 205 ft 2 kts 81°
2026-05-08 07:54 66.59073 66.60465 209 ft 8 kts 155°
2026-05-08 07:54 66.59063 66.60477 202 ft 0 kts 152°
2026-05-08 07:54 66.59060 66.60482 202 ft 2 kts 149°
2026-05-08 07:55 66.59011 66.60549 202 ft 13 kts 151°
2026-05-08 07:55 66.58979 66.60677 202 ft 10 kts 61°
2026-05-08 07:55 66.59030 66.60906 205 ft 21 kts 60°
2026-05-08 07:55 66.59107 66.61266 199 ft 22 kts 63°
2026-05-08 07:56 66.59192 66.61656 193 ft 29 kts 62°
2026-05-08 07:56 66.59291 66.62113 202 ft 26 kts 61°
2026-05-08 07:56 66.59367 66.62462 191 ft 22 kts 62°
2026-05-08 07:56 66.59434 66.62776 183 ft 15 kts 62°
2026-05-08 07:57 66.59488 66.63021 182 ft 18 kts 61°
2026-05-08 07:57 66.59522 66.63257 182 ft 10 kts 63°
2026-05-08 07:57 66.59536 66.63234 182 ft 3 kts 226°
2026-05-08 07:57 66.59528 66.63207 182 ft 0 kts 240°
2026-05-08 07:58 66.59522 66.63179 182 ft 15 kts 243°
2026-05-08 07:58 66.59379 66.62516 187 ft 67 kts 243°
2026-05-08 07:58 66.59140 66.61434 352 ft 77 kts 245°
2026-05-08 07:59 66.58863 66.60150 511 ft 88 kts 245°
2026-05-08 07:59 66.58544 66.58783 700 ft 95 kts 243°
2026-05-08 07:59 66.58205 66.57281 889 ft 100 kts 246°
2026-05-08 07:59 66.57881 66.55789 1158 ft 96 kts 246°
2026-05-08 08:00 66.57498 66.54383 1363 ft 98 kts 240°
2026-05-08 08:00 66.56935 66.53366 1528 ft 113 kts 199°
2026-05-08 08:00 66.56135 66.53286 1707 ft 118 kts 183°
2026-05-08 08:00 66.55316 66.53444 1877 ft 120 kts 184°
2026-05-08 08:01 66.54435 66.53609 2069 ft 134 kts 181°
2026-05-08 08:01 66.53450 66.53821 2270 ft 148 kts 182°
2026-05-08 08:01 66.52411 66.54030 2447 ft 151 kts 180°
2026-05-08 08:01 66.51360 66.54289 2626 ft 152 kts 182°
2026-05-08 08:02 66.50307 66.54495 2788 ft 153 kts 181°
2026-05-08 08:02 66.49244 66.54735 2955 ft 154 kts 181°
2026-05-08 08:02 66.48189 66.54978 3167 ft 152 kts 181°
2026-05-08 08:02 66.47145 66.55205 3377 ft 149 kts 181°
2026-05-08 08:03 66.46109 66.55434 3590 ft 150 kts 181°
2026-05-08 08:03 66.45071 66.55660 3790 ft 149 kts 181°
2026-05-08 08:03 66.44042 66.55885 4005 ft 149 kts 181°
2026-05-08 08:03 66.43010 66.56105 4216 ft 149 kts 182°
2026-05-08 08:04 66.41975 66.56336 4433 ft 149 kts 182°
2026-05-08 08:04 66.40926 66.56561 4661 ft 153 kts 181°
2026-05-08 08:04 66.39866 66.56801 4879 ft 153 kts 181°
2026-05-08 08:04 66.38806 66.57029 5093 ft 153 kts 182°
2026-05-08 08:05 66.37753 66.57265 5305 ft 151 kts 181°
2026-05-08 08:05 66.36713 66.57488 5519 ft 150 kts 182°
2026-05-08 08:05 66.35665 66.57713 5725 ft 151 kts 182°
2026-05-08 08:05 66.34626 66.57940 5941 ft 149 kts 182°
2026-05-08 08:06 66.33581 66.58161 6166 ft 152 kts 184°
2026-05-08 08:06 66.32523 66.58390 6381 ft 153 kts 183°
2026-05-08 08:06 66.31465 66.58631 6594 ft 152 kts 184°
2026-05-08 08:06 66.30413 66.58844 6795 ft 152 kts 183°
2026-05-08 08:07 66.29355 66.59091 6975 ft 153 kts 184°
2026-05-08 08:07 66.28253 66.59317 6986 ft 164 kts 184°
2026-05-08 08:07 66.27100 66.59564 6999 ft 169 kts 183°
2026-05-08 08:07 66.25924 66.59816 6999 ft 170 kts 183°
2026-05-08 08:08 66.24742 66.60075 6989 ft 170 kts 183°
2026-05-08 08:08 66.23546 66.60333 6974 ft 174 kts 183°
2026-05-08 08:08 66.22355 66.60591 6982 ft 173 kts 183°
2026-05-08 08:08 66.21152 66.60853 6987 ft 172 kts 183°
2026-05-08 08:09 66.19955 66.61104 6985 ft 173 kts 183°
2026-05-08 08:09 66.18760 66.61358 6969 ft 173 kts 183°
2026-05-08 08:09 66.17567 66.61617 6981 ft 172 kts 183°
2026-05-08 08:09 66.16374 66.61867 6985 ft 173 kts 183°
2026-05-08 08:10 66.15174 66.62128 6985 ft 172 kts 183°
2026-05-08 08:10 66.13980 66.62355 6983 ft 171 kts 187°
2026-05-08 08:10 66.12795 66.62368 6978 ft 170 kts 188°
2026-05-08 08:10 66.11604 66.62411 6984 ft 172 kts 188°
2026-05-08 08:11 66.10410 66.62460 6984 ft 172 kts 188°
2026-05-08 08:11 66.09220 66.62503 6969 ft 170 kts 188°
2026-05-08 08:11 66.08035 66.62547 6978 ft 170 kts 188°
2026-05-08 08:11 66.06856 66.62585 6980 ft 169 kts 188°
2026-05-08 08:12 66.05681 66.62624 6979 ft 169 kts 188°
2026-05-08 08:12 66.04502 66.62662 6981 ft 169 kts 188°
2026-05-08 08:12 66.03339 66.62709 6983 ft 169 kts 188°
2026-05-08 08:12 66.02163 66.62743 6984 ft 169 kts 188°
2026-05-08 08:13 66.00983 66.62780 6986 ft 169 kts 188°
2026-05-08 08:13 65.99803 66.62824 6983 ft 169 kts 188°
2026-05-08 08:13 65.98628 66.62863 6986 ft 170 kts 188°
2026-05-08 08:13 65.97446 66.62906 6986 ft 170 kts 188°
2026-05-08 08:14 65.96264 66.62945 6982 ft 169 kts 188°
2026-05-08 08:14 65.95086 66.62983 6981 ft 169 kts 188°
2026-05-08 08:14 65.93910 66.63024 6982 ft 169 kts 188°
2026-05-08 08:14 65.92729 66.63064 6983 ft 170 kts 189°
2026-05-08 08:15 65.91546 66.63103 6983 ft 170 kts 189°
2026-05-08 08:15 65.90364 66.63143 6985 ft 170 kts 189°
2026-05-08 08:15 65.89185 66.63183 6983 ft 170 kts 189°
2026-05-08 08:15 65.88005 66.63222 6986 ft 170 kts 189°
2026-05-08 08:16 65.86823 66.63264 6983 ft 170 kts 189°
2026-05-08 08:16 65.85633 66.63303 6981 ft 171 kts 189°
2026-05-08 08:16 65.84448 66.63342 6985 ft 171 kts 189°
2026-05-08 08:16 65.83259 66.63381 6987 ft 171 kts 189°
2026-05-08 08:17 65.82072 66.63423 6987 ft 170 kts 189°
2026-05-08 08:17 65.80888 66.63462 6980 ft 170 kts 189°
2026-05-08 08:17 65.79700 66.63502 6981 ft 170 kts 189°
2026-05-08 08:17 65.78500 66.63542 6982 ft 171 kts 189°
2026-05-08 08:18 65.77328 66.63581 6981 ft 170 kts 189°
2026-05-08 08:18 65.76144 66.63620 6981 ft 170 kts 189°
2026-05-08 08:18 65.74961 66.63659 6983 ft 170 kts 189°
2026-05-08 08:18 65.73782 66.63700 6982 ft 170 kts 189°
2026-05-08 08:19 65.72601 66.63737 6982 ft 170 kts 189°
2026-05-08 08:19 65.71422 66.63778 6981 ft 169 kts 189°
2026-05-08 08:19 65.70247 66.63816 6983 ft 169 kts 189°
2026-05-08 08:19 65.69073 66.63855 6979 ft 169 kts 189°
2026-05-08 08:20 65.67897 66.63895 6981 ft 169 kts 189°
2026-05-08 08:20 65.66723 66.63933 6982 ft 169 kts 189°
2026-05-08 08:20 65.65549 66.63972 6980 ft 168 kts 189°
2026-05-08 08:20 65.64380 66.64011 6980 ft 168 kts 189°
2026-05-08 08:21 65.63207 66.64048 6980 ft 168 kts 189°
2026-05-08 08:21 65.62038 66.64089 6982 ft 168 kts 189°
2026-05-08 08:21 65.60871 66.64125 6984 ft 168 kts 189°
2026-05-08 08:21 65.59711 66.64166 6985 ft 169 kts 189°
2026-05-08 08:22 65.58519 66.64203 6983 ft 169 kts 189°
2026-05-08 08:22 65.57340 66.64242 6979 ft 169 kts 188°
2026-05-08 08:22 65.56163 66.64281 6982 ft 169 kts 188°
2026-05-08 08:22 65.54985 66.64319 6981 ft 169 kts 188°
2026-05-08 08:23 65.53811 66.64359 6982 ft 169 kts 188°
2026-05-08 08:23 65.52641 66.64398 6982 ft 168 kts 188°
2026-05-08 08:23 65.51470 66.64435 6981 ft 168 kts 188°
2026-05-08 08:23 65.50302 66.64473 6978 ft 168 kts 188°
2026-05-08 08:24 65.49134 66.64510 6982 ft 168 kts 188°
2026-05-08 08:24 65.47978 66.64549 6983 ft 168 kts 188°
2026-05-08 08:24 65.46799 66.64588 6982 ft 168 kts 188°
2026-05-08 08:24 65.46025 66.64613 6981 ft 167 kts 188°
2026-05-08 08:25 65.44483 66.64663 6983 ft 167 kts 188°
2026-05-08 08:25 65.43318 66.64700 6982 ft 167 kts 188°
2026-05-08 08:25 65.42157 66.64738 6985 ft 167 kts 188°